Airfield :
LOGIN :

Register | Disclaimer

   EN    FR    IT 

 










Legend :    VFR   Marginal VFR   IFR   Intensive IFR   Very Intensive IFR
Visi :
Ceiling :
>= 8 km
>= 3000ft
5 to 8 km
1000 to 3000 ft
1500m to 5 km
500 to 1000 ft
800 to 1500m
200 to 500 ft
< 800m
< 200 ft
Symbols :   Thunderstorms  Fog  Heavy snow  Heavy precipitations  Wind > 20 kt
SIGMETs :     Misc.  Thunderstorms  Icing  Turbulence  Mountain Waves  Volcanic Ashes







- Airport Elevation : 49 ft
- IATA code : AOI


LIPY - Ancona Falconara

CURRENT METAR :
  • 221350Z 10007KT 040V160 CAVOK 30/18 Q1015

EXPIRED METARs :
  • 221250Z VRB07KT CAVOK 29/19 Q1015
  • 221150Z 06007KT 030V090 9999 FEW040 29/17 Q1015

TAF TAF LIPY
Valid from the 22 at 12:00 until the 23 at 12:00 UTC


221100Z 2212/2312 04010KT CAVOK
BECMG 2216/2218 VRB04KT
TEMPO 2300/2306 4000 BR
BECMG 2309/2311 04010KT
No reported NOTAMs for that airfield.



MET'MAP, your aeronautical weather chart ! - Copyright ORBIFLY December 2007 - Disclaimer

ORBIFLY MET'MAP TEAM :

Programming & Development : Alexandra Zaïnal
Concept & Development : Baudouin d'Aumeries
Co-Development & Prog : Marc-Olivier Méhu
Technical & hardware support : Manuel Goepfert

Contact : metmap@orbifly.com




SOURCES & CREDITS :

   NOAA